This is the latest recevied weather packets stored in our database for station/object WW3TRG. If no packets are shown the sender has not sent any weather packets the latest 10 day(s).
| Time | Temp. | Humidity | Pressure | Rain* | Wind** | Luminosity | Snow |
|---|---|---|---|---|---|---|---|
| 1787788938 | 21.11° C | 78% | 1016.1 hPa | 0 mm | - | 0 W/m² | - |
| 1787788635 | 21.11° C | 78% | 1015.8 hPa | 0 mm | - | 0 W/m² | - |
| 1787788335 | 21.11° C | 77% | 1015.9 hPa | 0 mm | - | 0 W/m² | - |
| 1787788031 | 21.11° C | 77% | 1016.1 hPa | 0 mm | - | 0 W/m² | - |
| 1787787726 | 21.67° C | 77% | 1016.1 hPa | 0 mm | - | 0 W/m² | - |
| 1787787424 | 21.67° C | 76% | 1016 hPa | 0 mm | - | 0 W/m² | - |
| 1787787119 | 21.67° C | 76% | 1016 hPa | 0 mm | - | 1 W/m² | - |
| 1787786813 | 21.67° C | 75% | 1016.1 hPa | 0 mm | - | 5 W/m² | - |
| 1787786508 | 22.22° C | 75% | 1016.1 hPa | 0 mm | - | 9 W/m² | - |
| 1787786203 | 22.22° C | 75% | 1016.1 hPa | 0 mm | - | 11 W/m² | - |
| 1787785900 | 22.22° C | 75% | 1016 hPa | 0 mm | - | 12 W/m² | - |
| 1787785595 | 22.78° C | 75% | 1016.3 hPa | 0 mm | - | 13 W/m² | - |
| 1787785295 | 22.78° C | 74% | 1016.3 hPa | 0 mm | - | 17 W/m² | - |
| 1787784994 | 22.78° C | 74% | 1016.3 hPa | 0 mm | - | 21 W/m² | - |
| 1787784688 | 22.78° C | 74% | 1016.4 hPa | 0 mm | - | 17 W/m² | - |
| 1787784387 | 23.33° C | 74% | 1016.4 hPa | 0 mm | - | 16 W/m² | - |
| 1787784081 | 23.33° C | 73% | 1016.5 hPa | 0 mm | - | 12 W/m² | - |
| 1787783778 | 23.33° C | 73% | 1016.6 hPa | 0 mm | - | 9 W/m² | - |
| 1787783478 | 23.89° C | 72% | 1016.4 hPa | 0 mm | - | 7 W/m² | - |
| 1787783174 | 23.89° C | 72% | 1016.6 hPa | 0 mm | - | 7 W/m² | - |
| 1787782868 | 23.89° C | 70% | 1016.5 hPa | 0 mm | - | 10 W/m² | - |
| 1787782562 | 23.89° C | 71% | 1016.7 hPa | 0 mm | - | 16 W/m² | - |
| 1787782258 | 23.89° C | 71% | 1016.5 hPa | 0 mm | - | 28 W/m² | - |
| 1787781954 | 24.44° C | 70% | 1016.6 hPa | 0 mm | - | 37 W/m² | - |
| 1787781648 | 25° C | 69% | 1016.7 hPa | 0 mm | - | 45 W/m² | - |
* Rain latest hour (hover to see other rain measurements)
** Current wind speed in m/s (hover to see current wind gust speed)